カタログに戻る

MOLNIYA 1-S

運用中通信GEO
NORAD 7392·PAYLOAD·🇷🇺 Russia

打ち上げ Jul 29, 1974 から Baikonur Cosmodrome

Loading…

TLE

最新Source: Space-Track

元期: Sep 14, 2026, 21:08 UTC

1 07392U 74060A   26257.88083389 -.00000329  00000-0  00000-0 0  9992
2 07392   1.1645 245.4904 0009096 293.1441 236.3497  1.00239136135071

AllMySatでMOLNIYA 1-Sをリアルタイム追跡

Download on the App Store